Showing default

KAZSTSAT, 43783

Orbit data source: Space-Track

KAZSTSAT, 43783 is a payload satellite owned by Ghalam LLP (KZ) in SSO that was launched on Mon, 03 Dec 2018 UTC via an FALCON 9 launch vehicle from the Air Force Western Test Range (AFWTR). Payload-class satellites include a variety of spacecraft equipped with specific instruments for various scientific and technological missions. These include communications satellites like Starlink; space stations such as the ISS; scientific satellites like the Hubble; Earth observation satellites from companies like Planet Labs, Umbra, and HawkEye 360; GPS; miniature CubeSats for education and research; and military/defense satellites.

Loading next visibility...
Identifier
43783, 2018-099AB
Orbit
SSO
Country
Flag of KZKZ / KAZ
Related business
Manufacturer
SSTL (Astrium)
Mission
Operational Commercial Imaging
Bus & Motor
SSTL-X50, AOCS
Mass
110 kg wet, ~100 kg dry
Launch date (UTC)
2018-12-03 (7 years ago)
Launch vehicle
FALCON 9
Launch site
Air Force Western Test Range (AFWTR)
Object type
Payload
Rocket body
Debris
Shape & HBR
Box, 0.3 m
Radar Cross Section
0.375 m², Medium (>0.1 m² and < 1m²)

Expand to show TLE details & history
Last TLE update: 14 hours ago

TLE from 14 hours ago
0 KAZSTSAT
1 43783U 18099AB  26095.04150971  .00002572  00000-0  21288-3 0  9991
2 43783  97.4356 130.2585 0003089 282.6756  77.4123 14.99711570400340
Epoch: 2026-04-05T00:59Z
TLE epoch observation values (Epoch: 2026-04-05T00:59:46.438Z)
Latitude
-0.00001°
Longitude
-78.03762°
Altitude
570.382 km
Speed
7.576 km/s
True Right ascension
08h 41m 02s
True Declination
0° 00' 00"
Sunlit
Object was in full shadow at epoch
Visualization orbit readout
Latitude
Unknown
Longitude
Unknown
Altitude
Unknown
Speed
Unknown
Apparent Right ascension
Unknown
Apparent Declination
Unknown
Sunlit
N/A
Visualization observer readout
Local Sidereal Time
21:10:26
Azimuth
Unknown
Elevation
Unknown
Doppler factor
Unknown
Orbital elements
Apogee altitude
566.926 km
Perigee altitude
562.636 km
Semi-major axis
6,942.918 km
Eccentricity
0.00031
Inclination
97.4356°
RAAN
130.2585°
Arg. of periapsis
282.6756°
True anomaly
77.44685°
Mean anomaly
77.4123°
Eccentric anomaly
77.42957°
Mean motion
3.75172 °/min
Orbital period
95.96 mins
BSTAR
0.00021288
Loading maneuver chart data...
Computing Atmospheric mass density...
Loading historical data...
Loading historical data...
Loading historical data...
Loading historical data...
Loading historical data...
Loading historical data...
Loading historical data...

Documentation

Showing up to 5 results
|